Wind_Speed
8 8 8 9 9 10 10 10 10 11 12 11 10 10 9 9 9 8 8 8 7 7 6 6 5 5 5 5 4 4 4 3 3 3 3 2 2 2 2 1 1 2 2
8 8 9 10 9 9 10 9 10 10 10 10 9 9 9 9 8 8 8 8 7 6 6 5 5 4 4 4 4 3 3 3 3 3 2 2 2 1 1 1 1 1 1
9 9 9 10 9 9 9 9 10 9 9 10 10 9 9 8 8 8 8 8 7 6 5 4 4 4 4 4 3 3 2 2 2 2 2 2 2 1 1 1 1 1 1
8 9 9 9 8 7 8 9 9 9 9 9 9 8 8 8 8 8 8 7 6 5 4 4 4 4 3 3 3 3 2 2 2 1 1 1 1 1 1 1 1 1 1
9 9 8 8 7 7 8 9 10 9 8 8 8 7 7 7 8 7 7 6 5 4 4 4 4 3 3 3 3 3 3 2 1 1 1 1 1 1 1 1 1 1 1
9 9 9 8 7 8 9 10 9 9 8 8 7 7 7 7 7 7 6 5 4 4 3 3 3 3 3 3 3 3 2 2 1 1 1 1 1 1 1 1 1 1 1
8 8 8 8 7 7 8 8 9 8 8 7 7 7 7 7 7 6 5 4 4 4 3 3 3 3 3 3 3 3 2 2 1 1 1 1 1 1 1 1 1 1 1
8 8 7 7 7 7 7 7 8 7 7 7 6 7 6 6 6 5 5 4 4 4 4 3 3 4 4 3 3 3 2 2 1 2 1 0 1 1 1 1 1 0 1
7 7 7 7 7 7 7 7 7 7 7 7 7 7 7 6 5 5 4 3 3 4 4 4 4 4 4 3 3 3 2 2 1 2 1 1 1 1 1 1 0 0 1
6 6 6 6 6 6 6 7 7 6 6 6 6 6 6 6 5 4 4 3 3 3 3 4 3 3 3 3 2 2 2 1 1 1 1 1 0 0 0 0 0 0 1
5 5 5 5 5 5 6 6 7 6 5 5 5 5 4 4 4 4 3 3 2 2 2 3 2 2 2 2 2 2 2 1 1 1 1 0 1 1 1 1 1 1 2
5 5 5 5 5 5 5 5 6 5 5 4 4 3 3 3 3 3 2 2 1 1 1 1 1 2 2 2 2 2 2 1 1 1 1 1 2 2 2 2 3 3 3
4 5 5 5 5 4 4 4 4 3 3 3 2 2 2 3 2 2 2 1 1 1 1 1 1 2 2 2 3 2 2 2 2 2 2 3 3 3 3 4 4 4 4
4 4 4 4 4 4 3 3 2 2 2 2 2 2 2 2 2 1 1 1 0 1 1 1 2 2 2 2 3 3 3 2 3 3 4 4 4 4 4 5 5 5 5
3 3 4 4 4 4 3 3 2 2 2 1 1 1 2 2 1 1 1 1 0 1 2 2 2 2 2 2 2 3 3 3 4 4 5 5 5 5 5 5 5 6 6
4 3 3 3 3 3 3 2 2 2 1 1 1 1 1 1 0 0 1 1 1 1 1 2 2 2 3 3 3 3 3 4 4 5 5 6 6 6 6 6 6 6 6
4 3 2 2 2 2 2 2 2 1 1 1 1 1 1 0 0 1 2 2 1 2 2 2 3 3 3 3 4 4 4 4 5 5 6 6 6 7 7 7 7 7 7
3 3 2 1 1 2 2 1 1 1 1 0 0 0 1 1 2 2 2 2 2 2 3 3 4 3 3 4 4 4 4 5 5 5 6 6 7 7 7 7 7 7 8
4 3 2 1 1 1 1 1 1 1 0 1 1 2 2 2 2 3 2 3 3 3 3 4 4 4 5 5 5 5 5 6 6 6 6 7 7 7 7 7 8 8 8
4 3 2 1 1 1 1 1 1 1 1 1 2 3 3 3 3 4 4 4 4 4 4 4 5 5 6 6 6 6 6 6 6 6 7 7 8 8 8 8 8 8 9
3 3 3 2 1 2 1 1 2 2 2 3 3 4 4 4 4 5 5 6 6 5 5 6 6 6 7 7 8 8 8 8 8 8 8 9 9 9 9 9 9 10 10
4 4 3 2 2 2 3 3 3 3 4 4 5 5 5 5 5 6 6 6 7 6 6 6 7 7 8 8 9 9 9 9 9 9 9 10 10 10 11 11 11 11 11
5 5 5 4 3 4 4 5 5 5 5 6 6 6 6 6 6 6 7 7 7 7 7 8 8 8 9 9 10 10 10 10 11 11 11 11 11 12 13 13 13 13 13
6 6 6 6 5 5 6 6 7 6 7 7 7 8 8 8 8 7 7 7 8 8 9 9 9 10 10 10 11 11 11 11 11 12 12 12 12 12 13 13 13 14 14
7 7 7 7 7 8 8 8 8 8 8 9 9 9 9 10 10 9 9 9 9 10 10 10 11 11 12 12 12 13 12 13 13 13 13 13 13 13 14 14 15 15 16
9 9 9 9 10 10 10 9 10 10 10 10 11 11 11 11 11 11 11 12 12 12 11 11 11 12 12 12 13 14 14 14 14 13 13 13 14 14 15 15 15 16 17
Wind_Direction
95 100 103 106 108 113 117 123 124 130 131 133 135 128 124 124 124 120 123 123 124 127 122 117 115 117 121 117 111 111 114 119 121 129 132 121 110 116 119 140 146 154 176
96 100 107 110 110 118 119 122 127 127 128 131 132 130 128 124 125 124 124 126 127 128 122 124 124 122 127 122 119 118 120 119 117 129 133 128 116 119 156 164 155 170 187
97 101 108 110 112 114 121 129 127 124 124 124 124 124 123 120 122 125 127 126 125 127 123 125 125 121 130 133 133 133 130 120 124 132 129 117 115 114 139 146 141 191 180
100 104 104 102 110 113 127 130 127 122 119 120 118 120 122 120 119 126 129 125 121 124 123 122 122 128 134 140 144 142 134 136 138 151 140 98 101 101 122 158 154 158 184
101 104 102 100 98 99 113 122 120 116 115 119 119 118 122 121 121 122 126 120 116 114 117 121 119 130 150 151 142 139 134 132 145 152 126 93 96 85 143 149 157 178 216
96 102 101 96 91 93 104 117 121 121 119 119 122 121 120 120 119 121 121 122 116 119 125 124 129 134 136 133 143 143 149 153 134 117 101 93 103 76 106 149 179 199 224
97 100 100 97 95 95 103 117 122 121 121 122 123 122 121 121 120 117 116 116 118 121 124 129 132 137 146 148 142 130 124 131 115 108 105 108 138 150 129 114 179 211 227
96 99 101 98 94 96 102 112 122 121 121 122 117 115 117 122 124 122 118 113 117 120 122 123 143 147 147 144 139 131 125 124 93 90 103 92 80 105 99 92 85 249 231
97 103 105 101 94 93 100 108 113 114 115 112 105 101 105 114 118 118 119 115 117 122 132 131 133 148 142 137 134 133 125 120 109 79 84 105 115 122 106 86 90 10 291
100 103 106 107 101 99 102 108 111 112 112 106 102 98 95 100 104 104 110 119 119 124 140 142 145 154 158 154 152 144 136 126 129 95 71 71 82 89 112 70 240 298 328
102 107 107 110 108 102 103 106 107 109 109 107 107 107 104 97 92 90 102 123 127 135 144 144 155 162 163 165 168 163 160 170 155 136 105 34 343 331 325 295 283 285 292
98 106 111 110 110 105 103 104 105 106 105 105 105 106 106 105 103 93 94 121 146 157 167 164 182 187 189 195 196 196 202 226 232 230 247 276 277 283 283 277 281 294 296
92 104 110 109 109 106 105 106 103 109 111 108 109 105 100 103 106 92 77 75 128 183 211 225 240 213 216 228 226 223 232 244 255 267 272 271 276 280 282 276 275 280 281
89 101 109 118 118 114 113 112 115 121 122 109 115 107 95 92 88 68 54 47 162 217 225 238 254 246 240 252 243 240 243 248 258 269 271 276 281 282 285 284 276 278 278
90 97 107 113 114 114 109 105 106 107 109 97 95 96 105 89 65 59 27 12 302 262 244 238 249 247 239 242 247 246 253 261 265 267 265 267 272 277 279 281 281 282 278
91 100 114 118 121 120 114 108 107 107 101 112 98 108 119 112 93 39 319 324 324 271 255 256 260 266 258 252 261 267 268 261 262 266 266 266 270 275 278 276 282 287 282
79 80 108 124 136 136 120 119 111 110 120 127 112 104 106 134 263 301 297 294 276 271 266 273 267 271 272 265 268 277 277 269 266 265 268 270 271 274 278 276 278 282 281
63 58 86 118 121 114 113 123 133 122 127 180 280 296 274 283 284 289 285 280 283 285 274 277 271 274 279 275 277 280 286 287 278 269 269 271 272 274 275 274 275 276 278
45 48 75 109 111 97 99 98 74 56 22 287 279 272 270 285 279 279 283 278 280 281 283 281 274 270 271 273 275 275 280 286 284 272 274 274 273 271 272 274 273 274 278
29 38 55 70 61 17 322 81 24 353 347 319 301 287 283 279 278 272 274 277 276 274 274 278 278 274 273 273 274 275 276 280 280 276 275 275 276 274 274 274 277 275 277
6 10 23 27 13 12 351 317 309 310 307 308 304 299 291 287 291 290 286 279 279 277 275 275 274 274 273 275 275 276 278 278 278 279 277 275 276 275 273 273 276 277 279
332 336 341 335 328 325 326 316 311 311 305 304 305 304 300 295 290 292 288 285 284 280 280 280 276 273 273 273 274 275 278 278 278 278 279 277 277 276 275 274 276 279 280
319 320 319 315 302 299 303 306 301 301 301 305 306 302 299 295 290 286 287 286 281 278 281 278 274 275 276 275 273 272 273 276 277 277 277 278 278 275 275 275 277 278 281
315 311 307 302 291 290 293 295 293 293 294 297 298 294 291 290 286 280 281 280 282 281 279 278 276 274 275 277 274 274 276 276 282 280 279 277 279 280 277 276 278 278 278
309 301 298 295 287 284 282 288 289 287 288 290 291 291 290 288 288 284 279 278 284 283 283 280 277 275 275 276 277 276 276 276 282 283 284 282 280 281 279 278 278 277 277
304 299 295 294 288 284 284 286 287 288 289 287 287 287 289 289 289 289 287 284 285 284 283 283 281 278 279 279 278 278 279 277 278 280 281 282 281 280 280 279 278 278 278
Height
5887 5886 5885 5885 5885 5885 5886 5886 5887 5887 5888 5889 5890 5890 5891 5892 5893 5893 5894 5895 5895 5896 5896 5896 5897 5897 5897 5897 5897 5897 5898 5898 5898 5898 5898 5898 5898 5898 5897 5897 5897 5897 5897
5888 5887 5887 5887 5887 5887 5887 5887 5888 5889 5889 5890 5891 5891 5892 5893 5893 5894 5895 5895 5895 5896 5896 5896 5896 5897 5897 5898 5898 5898 5898 5898 5898 5898 5898 5898 5898 5898 5898 5897 5897 5897 5897
5889 5888 5888 5888 5888 5888 5888 5889 5889 5890 5890 5891 5892 5892 5893 5893 5894 5895 5896 5896 5896 5896 5896 5896 5897 5897 5897 5898 5898 5898 5898 5898 5898 5898 5898 5898 5898 5898 5898 5898 5898 5897 5898
5890 5890 5889 5890 5890 5889 5889 5889 5890 5891 5892 5893 5893 5893 5894 5894 5895 5895 5896 5896 5897 5897 5897 5897 5897 5897 5897 5898 5898 5898 5898 5898 5898 5898 5898 5898 5898 5898 5898 5898 5898 5898 5898
5891 5891 5891 5891 5891 5889 5888 5890 5892 5892 5893 5894 5894 5895 5895 5895 5896 5896 5897 5897 5897 5897 5897 5897 5897 5897 5898 5898 5898 5898 5898 5898 5898 5898 5898 5898 5898 5898 5898 5898 5898 5898 5898
5893 5893 5893 5893 5892 5891 5889 5892 5893 5894 5894 5895 5895 5896 5896 5896 5897 5897 5897 5897 5898 5898 5898 5898 5898 5898 5898 5898 5898 5898 5899 5899 5898 5898 5898 5898 5898 5898 5898 5898 5898 5898 5898
5895 5895 5895 5895 5894 5894 5894 5894 5895 5895 5896 5896 5897 5897 5897 5897 5898 5898 5898 5898 5898 5898 5898 5898 5898 5898 5899 5899 5899 5899 5899 5899 5899 5899 5898 5898 5899 5898 5898 5898 5898 5898 5897
5896 5896 5896 5896 5896 5896 5896 5896 5896 5896 5897 5897 5897 5898 5898 5898 5898 5898 5898 5898 5898 5898 5899 5899 5899 5899 5899 5899 5899 5899 5899 5899 5899 5899 5898 5899 5899 5899 5899 5898 5898 5898 5898
5898 5898 5898 5898 5897 5897 5897 5898 5898 5898 5898 5898 5898 5898 5898 5899 5899 5899 5899 5899 5899 5899 5899 5899 5899 5899 5899 5900 5900 5900 5900 5900 5900 5899 5899 5899 5899 5899 5899 5899 5899 5899 5898
5900 5900 5899 5899 5899 5899 5899 5899 5899 5900 5900 5900 5899 5899 5899 5899 5899 5899 5899 5899 5899 5899 5899 5899 5900 5900 5900 5900 5901 5901 5900 5900 5900 5900 5899 5899 5899 5899 5899 5899 5899 5899 5899
5901 5901 5901 5900 5900 5900 5900 5900 5900 5901 5900 5900 5900 5900 5900 5900 5900 5900 5899 5899 5899 5899 5899 5900 5900 5900 5900 5900 5900 5900 5900 5900 5900 5900 5900 5900 5900 5900 5899 5899 5899 5899 5899
5902 5902 5901 5901 5901 5901 5901 5901 5902 5901 5901 5901 5901 5901 5901 5900 5900 5900 5900 5899 5899 5899 5899 5899 5900 5900 5900 5900 5900 5900 5900 5900 5900 5900 5900 5900 5900 5900 5899 5899 5899 5898 5898
5903 5902 5902 5902 5902 5902 5902 5902 5902 5902 5902 5901 5901 5901 5901 5901 5900 5900 5900 5899 5899 5899 5899 5899 5899 5899 5900 5900 5900 5900 5900 5900 5899 5899 5899 5899 5899 5899 5899 5899 5898 5898 5898
5904 5904 5903 5903 5903 5903 5903 5903 5903 5902 5902 5902 5902 5901 5901 5901 5901 5900 5900 5900 5899 5899 5899 5899 5899 5899 5899 5899 5899 5899 5899 5899 5899 5899 5899 5899 5899 5899 5898 5898 5897 5897 5897
5905 5905 5904 5904 5904 5904 5904 5903 5903 5903 5902 5902 5902 5901 5901 5901 5901 5900 5900 5899 5899 5899 5899 5899 5899 5899 5898 5899 5899 5898 5898 5898 5898 5898 5898 5898 5898 5898 5897 5897 5896 5896 5896
5906 5906 5905 5905 5904 5904 5904 5904 5903 5903 5902 5902 5902 5901 5901 5901 5901 5900 5900 5899 5899 5898 5898 5898 5898 5898 5898 5898 5898 5897 5897 5897 5897 5896 5896 5896 5896 5896 5896 5896 5895 5895 5895
5907 5906 5906 5905 5905 5904 5904 5904 5903 5903 5902 5902 5902 5901 5901 5901 5900 5900 5899 5899 5898 5898 5898 5898 5897 5897 5897 5897 5897 5896 5896 5896 5896 5895 5895 5895 5895 5895 5895 5894 5894 5894 5893
5907 5906 5906 5905 5905 5905 5904 5904 5903 5903 5903 5902 5902 5901 5901 5901 5900 5900 5899 5898 5898 5897 5897 5897 5897 5896 5896 5896 5895 5895 5895 5895 5894 5894 5894 5894 5893 5893 5893 5892 5892 5892 5891
5908 5907 5906 5905 5905 5905 5904 5904 5903 5903 5903 5902 5902 5901 5901 5901 5900 5899 5899 5898 5897 5897 5897 5896 5896 5895 5895 5895 5894 5894 5894 5893 5893 5893 5892 5892 5892 5891 5891 5890 5890 5890 5889
5908 5907 5906 5906 5906 5905 5904 5904 5904 5903 5902 5902 5901 5901 5900 5900 5899 5899 5898 5897 5896 5896 5896 5895 5894 5894 5894 5894 5893 5893 5892 5892 5891 5891 5891 5890 5890 5889 5889 5888 5888 5888 5887
5909 5908 5907 5906 5906 5905 5905 5904 5903 5903 5902 5901 5901 5900 5899 5899 5898 5898 5897 5896 5895 5895 5894 5894 5893 5893 5892 5892 5892 5891 5891 5890 5889 5889 5889 5888 5888 5887 5887 5886 5886 5885 5885
5909 5908 5907 5906 5906 5905 5904 5903 5903 5902 5901 5900 5900 5899 5898 5898 5897 5896 5896 5895 5894 5893 5893 5892 5892 5891 5891 5890 5890 5889 5889 5889 5888 5887 5886 5886 5885 5885 5884 5884 5884 5883 5882
5909 5908 5907 5906 5905 5904 5903 5902 5902 5901 5900 5899 5898 5898 5897 5896 5895 5895 5894 5893 5892 5891 5891 5890 5889 5889 5888 5888 5887 5887 5887 5886 5885 5885 5884 5883 5883 5882 5882 5881 5881 5880 5879
5908 5907 5906 5904 5903 5903 5902 5901 5901 5900 5899 5898 5897 5896 5895 5894 5894 5893 5892 5891 5890 5889 5888 5888 5887 5886 5886 5885 5885 5884 5884 5883 5882 5882 5881 5880 5880 5879 5878 5878 5877 5877 5876
5906 5905 5904 5903 5902 5901 5900 5900 5899 5898 5897 5896 5895 5894 5893 5892 5891 5891 5890 5889 5888 5887 5886 5885 5884 5884 5883 5882 5882 5881 5880 5879 5878 5878 5877 5877 5876 5876 5875 5874 5874 5873 5872
5904 5903 5902 5901 5901 5900 5899 5898 5897 5896 5894 5894 5893 5892 5891 5890 5889 5888 5887 5886 5886 5885 5884 5883 5881 5881 5880 5879 5878 5877 5877 5876 5875 5874 5874 5873 5872 5872 5871 5870 5869 5869 5868